Date,Time,Wetness (Wet Dry or Ice),Wind Speed (m/s),Temperature (C),Humidity (%),Pressure (mb),Radiation (W/m^2)
2020-06-08,21:45:00,DRY,1.20,10.90,15.0,776.00,0.6
2020-06-08,21:50:00,DRY,1.47,10.97,15.0,776.00,1.1
2020-06-08,21:55:00,DRY,1.20,11.00,14.0,776.00,0.8
2020-06-08,22:00:00,DRY,1.33,11.03,13.7,776.00,1.4
2020-06-08,22:05:00,DRY,1.15,10.85,14.0,776.00,1.0
2020-06-08,22:10:00,DRY,1.33,10.80,14.0,776.00,1.0
2020-06-08,22:15:00,DRY,1.30,10.90,14.0,776.00,1.4
2020-06-08,22:20:00,DRY,1.30,10.80,14.0,776.00,0.7
2020-06-08,22:25:00,DRY,1.45,10.60,14.0,776.00,0.9
2020-06-08,22:30:00,DRY,0.97,10.67,14.0,776.00,1.8
2020-06-08,22:35:00,DRY,0.70,10.65,14.5,776.00,1.8
2020-06-08,22:40:00,DRY,1.13,10.50,15.0,776.00,1.5
2020-06-08,22:45:00,DRY,1.10,10.65,14.0,776.00,0.8
2020-06-08,22:50:00,DRY,0.53,10.70,14.0,776.00,1.2
2020-06-08,22:55:00,DRY,0.55,10.45,14.5,776.00,1.4
2020-06-08,23:00:00,DRY,0.90,10.47,14.3,776.00,1.9
2020-06-08,23:05:00,DRY,0.65,10.30,15.0,776.00,2.1
2020-06-08,23:10:00,DRY,0.83,10.40,16.0,776.00,1.1
2020-06-08,23:15:00,DRY,0.75,10.10,16.5,776.00,1.9
2020-06-08,23:20:00,DRY,1.33,9.97,17.0,776.00,1.1
2020-06-08,23:25:00,DRY,0.35,10.00,16.5,776.00,1.2
2020-06-08,23:30:00,DRY,0.77,9.90,16.3,776.00,1.0
2020-06-08,23:35:00,DRY,0.55,9.90,17.0,776.00,1.2
2020-06-08,23:40:00,DRY,0.53,9.90,17.0,776.00,1.5
2020-06-08,23:45:00,DRY,1.35,10.30,16.0,776.00,2.1
2020-06-08,23:50:00,DRY,1.83,10.60,15.7,776.00,0.8
2020-06-08,23:55:00,DRY,2.40,10.15,17.5,776.00,1.6
2020-06-09,00:00:00,DRY,3.13,10.53,14.7,776.00,0.7
2020-06-09,00:05:00,DRY,2.40,11.05,13.0,776.00,1.3
2020-06-09,00:10:00,DRY,1.93,11.33,10.7,776.00,0.8
2020-06-09,00:15:00,DRY,2.50,11.45,12.0,776.00,1.8
2020-06-09,00:20:00,DRY,1.83,11.37,11.3,776.00,1.2
2020-06-09,00:25:00,DRY,2.75,11.50,12.0,776.00,1.7
2020-06-09,00:30:00,DRY,1.67,12.03,10.7,776.00,0.9
2020-06-09,00:35:00,DRY,1.35,11.15,13.5,776.00,1.4
2020-06-09,00:40:00,DRY,0.83,11.03,12.0,776.00,2.0
2020-06-09,00:45:00,DRY,0.70,11.00,12.5,776.00,1.9
2020-06-09,00:50:00,DRY,0.80,11.03,12.0,776.00,1.1
2020-06-09,00:55:00,DRY,0.90,10.95,11.0,776.00,0.8
2020-06-09,01:00:00,DRY,0.77,10.80,12.0,776.00,1.4
2020-06-09,01:05:00,DRY,0.85,10.60,13.0,776.00,0.5
2020-06-09,01:10:00,DRY,1.30,10.30,13.7,776.00,1.6
2020-06-09,01:15:00,DRY,1.90,10.45,12.5,776.00,1.1
2020-06-09,01:20:00,DRY,2.27,10.57,13.0,776.00,1.3
2020-06-09,01:25:00,DRY,1.95,10.45,13.5,776.00,0.5
2020-06-09,01:30:00,DRY,1.77,11.07,12.0,776.00,0.9
2020-06-09,01:35:00,DRY,2.20,11.10,13.0,776.00,1.4
2020-06-09,01:40:00,DRY,2.47,9.87,15.3,776.00,1.1
2020-06-09,01:45:00,DRY,2.00,10.65,14.0,775.50,0.3
2020-06-09,01:50:00,DRY,1.87,10.57,13.7,775.67,1.5
2020-06-09,01:55:00,DRY,2.10,9.90,16.0,776.00,2.0
2020-06-09,02:00:00,DRY,2.90,10.33,15.0,775.33,1.6
2020-06-09,02:05:00,DRY,2.55,10.55,13.5,775.50,0.8
2020-06-09,02:10:00,DRY,2.63,10.23,14.7,775.00,1.8
2020-06-09,02:15:00,DRY,2.55,10.55,14.0,775.00,1.8
2020-06-09,02:20:00,DRY,2.55,9.80,15.5,775.00,1.1
2020-06-09,02:25:00,DRY,2.90,9.70,15.5,775.00,1.2
2020-06-09,02:30:00,DRY,2.40,9.83,15.0,775.00,1.9
2020-06-09,02:35:00,DRY,2.05,9.70,15.0,775.00,0.1
2020-06-09,02:40:00,DRY,2.07,9.93,15.3,775.00,0.5
2020-06-09,02:45:00,DRY,1.75,9.65,15.5,775.00,2.0
2020-06-09,02:50:00,DRY,2.33,9.63,15.3,775.00,0.8
2020-06-09,02:55:00,DRY,1.70,10.10,13.5,775.00,1.8
2020-06-09,03:00:00,DRY,2.00,10.43,13.3,775.00,0.9
2020-06-09,03:05:00,DRY,1.35,10.60,13.0,775.00,2.0
2020-06-09,03:10:00,DRY,1.87,10.23,14.3,775.00,1.3
2020-06-09,03:15:00,DRY,2.20,9.55,14.5,775.00,1.6
2020-06-09,03:20:00,DRY,2.70,10.23,14.0,775.00,0.6
2020-06-09,03:25:00,DRY,2.85,10.20,14.5,775.00,1.0
2020-06-09,03:30:00,DRY,2.90,10.10,14.3,775.00,1.6
2020-06-09,03:35:00,DRY,2.80,10.05,15.0,775.00,1.4
2020-06-09,03:40:00,DRY,3.33,10.13,15.0,775.00,1.2
2020-06-09,03:45:00,DRY,3.40,10.30,15.0,775.00,1.6
2020-06-09,03:50:00,DRY,3.03,10.17,14.3,775.00,1.4
2020-06-09,03:55:00,DRY,2.70,9.95,15.0,775.00,0.8
2020-06-09,04:00:00,DRY,2.63,9.77,14.3,775.00,0.9
2020-06-09,04:05:00,DRY,2.40,9.45,16.0,775.00,1.8
2020-06-09,04:10:00,DRY,3.47,9.90,14.0,775.00,0.9
2020-06-09,04:15:00,DRY,3.00,10.45,14.0,775.00,2.0
2020-06-09,04:20:00,DRY,3.50,10.37,14.0,775.00,1.5
2020-06-09,04:25:00,DRY,3.45,10.55,13.5,775.00,1.0
2020-06-09,04:30:00,DRY,3.87,10.43,13.7,775.00,1.9
2020-06-09,04:35:00,DRY,4.00,10.35,14.0,775.00,0.8
2020-06-09,04:40:00,DRY,3.77,10.50,13.3,775.00,1.6
2020-06-09,04:45:00,DRY,2.80,10.40,13.5,775.00,1.4
2020-06-09,04:50:00,DRY,3.60,10.40,13.7,775.00,1.2
2020-06-09,04:55:00,DRY,3.10,10.35,14.0,775.00,0.9
2020-06-09,05:00:00,DRY,2.77,10.13,15.0,775.00,1.1
2020-06-09,05:05:00,DRY,2.90,10.15,14.5,775.00,1.2
2020-06-09,05:10:00,DRY,2.30,10.20,14.0,775.00,1.2
2020-06-09,05:15:00,DRY,3.05,10.30,14.0,775.00,0.3
2020-06-09,05:20:00,DRY,2.97,10.07,14.7,775.00,0.9
2020-06-09,05:25:00,DRY,2.85,9.95,15.0,775.00,1.1
2020-06-09,05:30:00,DRY,3.73,9.97,15.3,775.00,1.0
2020-06-09,05:35:00,DRY,3.15,10.10,15.0,775.00,0.9
2020-06-09,05:40:00,DRY,3.40,9.90,15.7,775.00,2.2
2020-06-09,05:45:00,DRY,3.15,9.60,17.0,775.00,0.7
2020-06-09,05:50:00,DRY,3.33,9.73,16.3,775.00,1.3
2020-06-09,05:55:00,DRY,3.65,9.90,16.0,775.00,2.3
2020-06-09,06:00:00,DRY,4.47,9.97,15.7,775.00,2.6
2020-06-09,06:05:00,DRY,4.00,10.05,15.5,775.00,3.9
2020-06-09,06:10:00,DRY,4.10,10.37,13.3,775.00,6.1
2020-06-09,06:15:00,DRY,3.30,10.45,13.0,775.00,9.7
2020-06-09,06:20:00,DRY,3.13,10.23,15.0,775.00,23.8
2020-06-09,06:25:00,DRY,3.80,10.00,15.5,775.00,40.6
2020-06-09,06:30:00,DRY,3.70,10.40,15.0,775.00,36.0
2020-06-09,06:35:00,DRY,3.20,10.50,15.0,775.00,45.2
2020-06-09,06:40:00,DRY,3.33,10.27,15.3,775.00,103.4
2020-06-09,06:45:00,DRY,3.35,10.40,15.0,775.00,125.5
2020-06-09,06:50:00,DRY,2.27,10.27,15.3,775.00,144.5
2020-06-09,06:55:00,DRY,3.10,10.35,15.5,775.00,164.1
2020-06-09,07:00:00,DRY,2.33,10.53,14.3,775.00,184.6
2020-06-09,07:05:00,DRY,2.45,10.75,14.5,775.00,205.8
2020-06-09,07:10:00,DRY,3.03,10.83,13.0,775.00,227.7
2020-06-09,07:15:00,DRY,2.45,11.10,11.5,775.00,250.3
2020-06-09,07:20:00,DRY,2.53,11.27,11.3,775.00,271.1
2020-06-09,07:25:00,DRY,2.05,11.40,12.0,775.00,294.2
2020-06-09,07:30:00,DRY,2.47,11.53,11.3,775.00,316.5
2020-06-09,07:35:00,DRY,1.90,11.60,12.0,775.00,339.0
2020-06-09,07:40:00,DRY,2.23,11.80,11.7,775.00,361.2
2020-06-09,07:45:00,DRY,2.20,11.75,12.0,775.00,383.1
2020-06-09,07:50:00,DRY,1.83,11.90,10.7,775.00,404.8
2020-06-09,07:55:00,DRY,1.10,12.05,12.5,775.00,426.9
2020-06-09,08:00:00,DRY,1.17,12.53,12.0,775.00,449.9
2020-06-09,08:05:00,DRY,0.60,12.75,12.0,775.00,471.3
2020-06-09,08:10:00,DRY,0.90,12.57,12.3,775.00,493.4
2020-06-09,08:15:00,DRY,0.45,12.60,13.0,775.00,515.5
2020-06-09,08:20:00,DRY,0.67,12.87,13.0,775.00,536.7
2020-06-09,08:25:00,DRY,0.55,13.55,12.5,775.00,558.8
2020-06-09,08:30:00,DRY,1.45,12.95,13.5,775.00,576.0
2020-06-09,08:35:00,DRY,1.35,12.45,15.5,775.00,600.1
2020-06-09,08:40:00,DRY,2.87,12.57,14.7,775.00,620.9
2020-06-09,08:45:00,DRY,1.30,12.75,16.0,775.00,641.1
2020-06-09,08:50:00,DRY,2.10,12.87,14.0,775.00,662.2
2020-06-09,08:55:00,DRY,2.05,12.95,14.0,775.00,680.4
2020-06-09,09:00:00,DRY,1.43,13.20,14.0,775.00,699.7
2020-06-09,09:05:00,DRY,1.45,13.45,14.5,775.00,720.4
2020-06-09,09:10:00,DRY,1.73,13.77,15.0,775.00,740.6
2020-06-09,09:15:00,DRY,2.75,13.75,14.5,775.00,759.0
2020-06-09,09:20:00,DRY,1.00,14.10,14.3,775.00,778.9
2020-06-09,09:25:00,DRY,1.25,13.85,14.5,775.00,796.2
2020-06-09,09:30:00,DRY,0.97,14.33,14.0,775.00,812.9
2020-06-09,09:35:00,DRY,2.15,13.95,16.0,775.00,831.3
2020-06-09,09:40:00,DRY,1.90,14.03,15.0,775.00,847.7
2020-06-09,09:45:00,DRY,1.10,13.70,15.5,775.00,866.1
2020-06-09,09:50:00,DRY,2.23,13.83,14.7,775.00,883.9
2020-06-09,09:55:00,DRY,1.40,13.70,15.5,775.00,898.0
2020-06-09,10:00:00,DRY,1.50,14.13,15.3,775.00,912.4
2020-06-09,10:05:00,DRY,2.15,14.30,16.0,775.00,930.6
2020-06-09,10:10:00,DRY,1.37,14.30,16.0,775.00,945.5
2020-06-09,10:15:00,DRY,0.65,14.30,17.5,775.00,961.1
2020-06-09,10:20:00,DRY,1.43,14.13,15.0,775.00,974.5
2020-06-09,10:25:00,DRY,1.45,14.10,15.5,775.00,989.2
2020-06-09,10:30:00,DRY,1.43,13.77,16.0,775.00,1001.8
2020-06-09,10:35:00,DRY,0.75,13.70,16.0,775.00,1014.2
2020-06-09,10:40:00,DRY,2.60,14.10,18.3,775.00,1027.5
2020-06-09,10:45:00,DRY,2.35,14.15,28.5,775.00,1039.8
2020-06-09,10:50:00,DRY,1.97,14.47,28.3,775.00,1051.3
2020-06-09,10:55:00,DRY,1.95,15.00,26.5,775.00,1063.0
2020-06-09,11:00:00,DRY,1.37,14.83,33.3,775.00,1076.2
2020-06-09,11:05:00,DRY,1.65,14.25,30.0,775.00,1084.8
2020-06-09,11:10:00,DRY,0.73,15.17,34.3,775.33,1094.8
2020-06-09,11:15:00,DRY,2.90,14.95,45.0,775.00,1105.3
2020-06-09,11:20:00,DRY,1.63,14.20,40.3,775.33,1112.7
2020-06-09,11:25:00,DRY,1.85,14.65,32.5,775.00,1121.3
2020-06-09,11:30:00,DRY,1.37,14.83,30.0,776.00,1131.7
2020-06-09,11:35:00,DRY,2.70,14.65,34.0,776.00,1138.5
2020-06-09,11:40:00,DRY,1.20,15.13,35.3,776.00,1141.6
2020-06-09,11:45:00,DRY,1.40,15.25,33.5,776.00,1152.3
2020-06-09,11:50:00,DRY,1.43,15.30,31.7,776.00,1158.3
2020-06-09,11:55:00,DRY,1.05,14.90,24.5,776.00,1167.8
2020-06-09,12:00:00,DRY,1.30,15.00,28.7,776.00,1173.1
2020-06-09,12:05:00,DRY,1.05,15.40,21.5,775.50,1179.8
2020-06-09,12:10:00,DRY,2.07,15.43,23.7,776.00,1184.1
2020-06-09,12:15:00,DRY,1.95,15.05,28.0,776.00,1190.1
2020-06-09,12:20:00,DRY,1.33,15.30,28.7,776.00,1192.9
2020-06-09,12:25:00,DRY,1.85,15.40,27.5,775.50,1195.5
2020-06-09,12:30:00,DRY,1.87,14.03,39.7,775.33,1170.8
2020-06-09,12:35:00,DRY,1.65,13.90,39.5,775.50,1196.5
2020-06-09,12:40:00,DRY,1.13,14.60,44.0,776.00,1196.7
2020-06-09,12:45:00,DRY,1.90,13.60,30.0,776.00,1201.8
2020-06-09,12:50:00,DRY,2.77,12.73,27.0,775.67,1201.1
2020-06-09,12:55:00,DRY,1.70,13.85,33.0,775.50,1202.0
2020-06-09,13:00:00,DRY,0.83,14.07,40.3,775.33,1205.4
2020-06-09,13:05:00,DRY,3.15,14.35,55.5,775.00,1199.2
2020-06-09,13:10:00,DRY,2.25,13.85,51.5,775.50,1201.5
2020-06-09,13:15:00,DRY,2.40,13.45,55.5,776.00,1200.5
2020-06-09,13:20:00,DRY,2.50,13.77,53.3,776.00,1197.4
2020-06-09,13:25:00,DRY,1.75,14.85,54.5,776.00,1202.1
2020-06-09,13:30:00,DRY,1.80,14.20,59.0,776.00,1199.4
2020-06-09,13:35:00,DRY,1.90,14.90,58.0,775.00,1216.8
2020-06-09,13:40:00,DRY,2.73,14.50,56.0,775.33,1229.1
2020-06-09,13:45:00,DRY,4.15,14.35,59.0,776.00,1192.5
2020-06-09,13:50:00,DRY,3.40,13.70,52.3,776.00,1193.7
2020-06-09,13:55:00,DRY,2.50,14.05,55.0,776.00,1191.0
2020-06-09,14:00:00,DRY,3.37,14.67,45.3,776.00,1185.8
2020-06-09,14:05:00,DRY,2.85,14.10,44.0,775.50,1184.3
2020-06-09,14:10:00,DRY,2.33,14.27,43.7,775.67,1180.5
2020-06-09,14:15:00,DRY,2.50,14.85,39.5,776.00,1176.5
2020-06-09,14:20:00,DRY,1.73,14.83,47.3,776.00,1171.9
2020-06-09,14:25:00,DRY,2.10,15.00,44.0,775.50,1168.0
2020-06-09,14:30:00,DRY,1.97,14.83,39.7,775.33,1159.6
2020-06-09,14:35:00,DRY,1.65,15.85,30.0,775.50,1152.2
2020-06-09,14:40:00,DRY,2.17,15.83,44.3,775.33,1146.3
2020-06-09,14:45:00,DRY,1.05,16.00,43.5,775.00,1136.3
2020-06-09,14:50:00,DRY,2.47,15.83,40.7,775.33,1128.6
2020-06-09,14:55:00,DRY,1.35,16.25,32.0,775.00,1119.2
2020-06-09,15:00:00,DRY,2.57,15.20,42.0,775.00,1108.7
2020-06-09,15:05:00,DRY,2.65,15.40,41.0,775.00,1097.9
2020-06-09,15:10:00,DRY,2.43,15.77,40.7,775.00,1091.2
2020-06-09,15:15:00,DRY,2.50,16.40,22.0,775.00,1081.5
2020-06-09,15:20:00,DRY,2.70,16.37,27.7,775.00,1069.0
2020-06-09,15:25:00,DRY,3.15,16.05,21.5,775.00,1058.0
2020-06-09,15:30:00,DRY,1.83,16.17,26.7,775.00,1044.2
2020-06-09,15:35:00,DRY,1.50,15.55,29.5,775.00,1030.4
2020-06-09,15:40:00,DRY,1.43,16.27,20.0,775.00,1017.3
2020-06-09,15:45:00,DRY,2.05,16.15,28.0,775.00,1003.5
2020-06-09,15:50:00,DRY,2.47,15.97,38.3,775.00,987.8
2020-06-09,15:55:00,DRY,2.00,15.55,34.0,775.00,975.1
2020-06-09,16:00:00,DRY,2.70,16.10,41.0,775.00,959.3
2020-06-09,16:05:00,DRY,2.95,15.45,44.0,775.00,942.0
2020-06-09,16:10:00,DRY,3.60,15.53,38.0,775.00,927.4
2020-06-09,16:15:00,DRY,2.30,15.45,28.5,775.00,910.1
2020-06-09,16:20:00,DRY,2.70,15.00,32.0,775.00,897.3
2020-06-09,16:25:00,DRY,2.25,15.55,31.0,775.00,879.6
2020-06-09,16:30:00,DRY,2.27,15.63,29.7,775.00,860.6
2020-06-09,16:35:00,DRY,2.75,15.60,30.0,775.00,842.5
2020-06-09,16:40:00,DRY,2.27,15.67,31.0,775.00,826.7
2020-06-09,16:45:00,DRY,2.45,15.70,32.5,775.00,809.2
2020-06-09,16:50:00,DRY,2.40,15.20,31.5,775.00,792.2
2020-06-09,16:55:00,DRY,2.35,15.75,28.0,775.00,772.4
2020-06-09,17:00:00,DRY,2.27,15.27,25.0,775.00,754.6
2020-06-09,17:05:00,DRY,3.45,15.15,25.0,775.00,735.3
2020-06-09,17:10:00,DRY,2.90,15.43,30.3,775.00,715.5
2020-06-09,17:15:00,DRY,1.95,14.95,27.5,775.00,694.9
2020-06-09,17:20:00,DRY,2.93,15.17,27.0,775.00,677.4
2020-06-09,17:25:00,DRY,2.50,14.80,40.5,775.00,657.0
2020-06-09,17:30:00,DRY,1.97,15.00,26.0,775.00,637.6
2020-06-09,17:35:00,DRY,1.30,14.70,30.0,775.00,616.5
2020-06-09,17:40:00,DRY,2.00,15.30,34.3,775.00,595.5
2020-06-09,17:45:00,DRY,2.40,14.50,51.0,775.00,573.9
2020-06-09,17:50:00,DRY,2.03,14.37,41.3,775.00,553.7
2020-06-09,17:55:00,DRY,2.70,14.50,52.5,775.00,530.4
2020-06-09,18:00:00,DRY,2.17,13.73,57.3,775.00,508.9
2020-06-09,18:05:00,DRY,2.00,13.65,57.0,775.00,487.4
2020-06-09,18:10:00,DRY,2.17,13.97,44.7,775.00,465.9
2020-06-09,18:15:00,DRY,2.00,14.30,36.0,775.00,444.1
2020-06-09,18:20:00,DRY,1.60,15.23,25.7,775.00,423.0
2020-06-09,18:25:00,DRY,3.60,15.80,15.0,775.00,404.4
2020-06-09,18:30:00,DRY,1.47,16.00,14.3,775.00,379.7
2020-06-09,18:35:00,DRY,1.60,16.40,13.5,775.00,356.4
2020-06-09,18:40:00,DRY,1.53,16.17,17.7,775.00,335.4
2020-06-09,18:45:00,DRY,2.30,15.85,13.0,775.00,313.0
2020-06-09,18:50:00,DRY,1.83,15.93,13.7,775.00,290.1
2020-06-09,18:55:00,DRY,1.95,16.20,12.5,775.00,269.2
2020-06-09,19:00:00,DRY,1.50,15.77,11.0,775.00,246.0
2020-06-09,19:05:00,DRY,1.20,15.65,10.5,775.00,225.6
2020-06-09,19:10:00,DRY,1.93,15.73,9.0,775.00,203.9
2020-06-09,19:15:00,DRY,1.65,15.70,10.0,775.00,184.1
2020-06-09,19:20:00,DRY,1.70,15.53,9.3,775.00,164.8
2020-06-09,19:25:00,DRY,0.85,15.30,9.5,775.50,145.6
2020-06-09,19:30:00,DRY,1.37,15.30,9.3,775.00,124.9
2020-06-09,19:35:00,DRY,1.40,14.95,9.5,775.00,99.2
2020-06-09,19:40:00,DRY,1.23,14.83,10.0,775.33,76.3
2020-06-09,19:45:00,DRY,0.95,14.65,10.0,775.00,54.1
2020-06-09,19:50:00,DRY,2.47,14.40,9.0,775.33,40.3
2020-06-09,19:55:00,DRY,1.35,14.15,8.5,775.50,29.8
2020-06-09,20:00:00,DRY,2.13,13.90,7.3,775.67,18.6
2020-06-09,20:05:00,DRY,1.90,13.65,7.5,776.00,13.8
2020-06-09,20:10:00,DRY,2.30,13.40,7.0,775.67,9.1
2020-06-09,20:15:00,DRY,3.35,13.15,6.5,775.50,4.8
2020-06-09,20:20:00,DRY,2.20,13.03,6.7,776.00,3.0
2020-06-09,20:25:00,DRY,3.20,12.90,6.0,775.50,2.0
2020-06-09,20:30:00,DRY,1.73,12.73,6.0,776.00,1.7
2020-06-09,20:35:00,DRY,2.45,12.70,6.0,776.00,1.1
2020-06-09,20:40:00,DRY,1.43,12.57,6.0,776.00,1.3
2020-06-09,20:45:00,DRY,2.05,12.45,6.0,776.00,1.8
2020-06-09,20:50:00,DRY,1.43,12.20,7.0,776.00,0.9
2020-06-09,20:55:00,DRY,1.15,11.95,7.0,776.00,0.9
2020-06-09,21:00:00,DRY,1.40,12.00,7.0,776.00,0.8
2020-06-09,21:05:00,DRY,1.35,11.95,7.5,776.00,1.3
2020-06-09,21:10:00,DRY,0.83,11.83,7.0,776.00,1.3
2020-06-09,21:15:00,DRY,0.55,11.95,7.0,776.00,1.4
2020-06-09,21:20:00,DRY,1.33,12.13,6.0,776.00,1.6
2020-06-09,21:25:00,DRY,2.20,12.10,7.0,776.00,3.0
2020-06-09,21:30:00,DRY,2.07,11.60,13.7,776.00,1.1
2020-06-09,21:35:00,DRY,1.65,11.25,14.5,776.00,1.9
2020-06-09,21:40:00,DRY,2.17,12.03,7.0,776.00,1.3
2020-06-09,21:45:00,DRY,2.20,11.90,10.0,776.00,1.4
2020-06-09,21:50:00,DRY,2.23,11.00,15.7,776.00,1.0
2020-06-09,21:55:00,DRY,1.75,10.80,16.0,776.00,1.4
2020-06-09,22:00:00,DRY,2.03,11.07,11.3,776.00,0.6
2020-06-09,22:05:00,DRY,1.55,11.10,11.5,776.00,0.9
2020-06-09,22:10:00,DRY,1.70,11.10,9.3,776.00,0.8
2020-06-09,22:15:00,DRY,1.75,12.30,5.5,776.00,1.1
2020-06-09,22:20:00,DRY,0.77,12.63,5.0,776.00,1.6
2020-06-09,22:25:00,DRY,1.30,12.60,5.0,776.00,0.7
2020-06-09,22:30:00,DRY,2.00,12.27,7.0,776.00,1.0
2020-06-09,22:35:00,DRY,1.95,11.70,8.0,776.00,0.6
2020-06-09,22:40:00,DRY,1.43,11.97,6.3,776.00,1.8
2020-06-09,22:45:00,DRY,1.05,12.45,6.0,776.00,1.1
2020-06-09,22:50:00,DRY,0.97,12.67,5.3,776.00,1.1
2020-06-09,22:55:00,DRY,0.30,12.35,6.0,776.00,1.8
2020-06-09,23:00:00,DRY,0.43,12.30,6.3,776.00,1.4
2020-06-09,23:05:00,DRY,0.80,12.45,6.0,776.00,1.4
2020-06-09,23:10:00,DRY,1.83,12.57,6.7,776.00,1.2
2020-06-09,23:15:00,DRY,2.45,12.40,8.0,776.00,0.8
2020-06-09,23:20:00,DRY,2.43,12.27,8.0,776.00,1.2
2020-06-09,23:25:00,DRY,2.50,12.10,8.0,776.00,1.1
2020-06-09,23:30:00,DRY,3.33,12.23,7.3,776.00,1.8
2020-06-09,23:35:00,DRY,3.10,12.20,8.0,776.00,1.4
2020-06-09,23:40:00,DRY,3.23,11.97,9.0,776.00,1.4
2020-06-09,23:45:00,DRY,1.55,12.05,9.5,776.00,1.3
2020-06-09,23:50:00,DRY,2.23,11.83,8.7,776.00,1.4
2020-06-09,23:55:00,DRY,2.35,11.40,10.0,776.00,0.4
2020-06-10,00:00:00,DRY,2.57,11.43,9.7,776.00,1.4
2020-06-10,00:05:00,DRY,3.00,12.10,8.0,776.00,1.6
2020-06-10,00:10:00,DRY,2.50,12.40,8.0,776.00,0.7
2020-06-10,00:15:00,DRY,2.85,12.25,7.5,776.00,1.8
2020-06-10,00:20:00,DRY,1.97,12.20,7.0,776.00,1.7
2020-06-10,00:25:00,DRY,2.50,12.05,8.5,776.00,0.8
2020-06-10,00:30:00,DRY,2.73,11.37,9.7,776.00,1.9
2020-06-10,00:35:00,DRY,2.95,11.35,11.0,776.00,0.7
2020-06-10,00:40:00,DRY,2.90,11.57,9.7,776.00,1.1
2020-06-10,00:45:00,DRY,2.55,11.20,10.5,776.00,1.1
2020-06-10,00:50:00,DRY,3.10,11.20,11.0,776.00,1.2
2020-06-10,00:55:00,DRY,2.95,11.30,11.0,776.00,1.3
2020-06-10,01:00:00,DRY,2.97,11.17,11.0,776.00,2.1
2020-06-10,01:05:00,DRY,2.65,11.15,12.0,776.00,2.6
2020-06-10,01:10:00,DRY,2.80,10.73,13.0,776.00,1.2
2020-06-10,01:15:00,DRY,2.35,10.60,12.5,776.00,1.2
2020-06-10,01:20:00,DRY,2.37,10.70,11.7,776.00,1.4
2020-06-10,01:25:00,DRY,2.25,10.75,11.0,776.00,1.8
2020-06-10,01:30:00,DRY,2.80,10.57,14.3,776.00,1.7
2020-06-10,01:35:00,DRY,3.20,10.35,15.0,776.00,1.6
2020-06-10,01:40:00,DRY,3.13,10.30,14.7,775.00,1.5
2020-06-10,01:45:00,DRY,2.65,10.20,14.5,775.00,1.2
2020-06-10,01:50:00,DRY,2.77,10.10,13.0,775.00,1.0
2020-06-10,01:55:00,DRY,2.75,10.30,11.5,775.00,1.2
2020-06-10,02:00:00,DRY,3.60,10.10,12.3,775.00,1.6
2020-06-10,02:05:00,DRY,3.30,9.90,14.0,775.00,1.6
2020-06-10,02:10:00,DRY,3.27,9.73,13.0,775.00,1.0
2020-06-10,02:15:00,DRY,3.10,9.85,12.0,775.00,1.1
2020-06-10,02:20:00,DRY,2.87,9.83,12.3,775.00,1.0
2020-06-10,02:25:00,DRY,2.95,9.85,12.0,775.00,0.9
2020-06-10,02:30:00,DRY,2.83,9.90,12.0,775.00,1.8
2020-06-10,02:35:00,DRY,2.60,9.80,13.0,775.00,0.2
2020-06-10,02:40:00,DRY,2.43,9.87,12.7,775.00,2.1
2020-06-10,02:45:00,DRY,2.15,9.95,12.5,775.00,1.8
2020-06-10,02:50:00,DRY,1.83,10.07,12.0,775.00,1.7
2020-06-10,02:55:00,DRY,1.05,10.50,11.0,775.00,0.9
2020-06-10,03:00:00,DRY,0.77,10.60,10.0,775.00,1.2
2020-06-10,03:05:00,DRY,2.00,10.80,10.0,775.00,0.8
2020-06-10,03:10:00,DRY,1.33,10.73,10.7,775.00,1.4
2020-06-10,03:15:00,DRY,1.65,10.60,11.0,775.00,1.5
2020-06-10,03:20:00,DRY,1.80,10.53,10.3,775.00,0.6
2020-06-10,03:25:00,DRY,2.45,10.05,12.0,775.00,0.8
2020-06-10,03:30:00,DRY,2.03,9.63,13.3,775.00,1.2
2020-06-10,03:35:00,DRY,2.85,9.80,13.5,775.00,0.2
2020-06-10,03:40:00,DRY,3.43,9.47,15.7,775.00,1.6
2020-06-10,03:45:00,DRY,3.30,9.35,15.0,775.00,1.3
2020-06-10,03:50:00,DRY,3.00,9.17,16.7,775.00,1.4
2020-06-10,03:55:00,DRY,2.10,9.80,13.5,775.00,0.5
2020-06-10,04:00:00,DRY,2.70,9.60,15.3,774.67,1.3
2020-06-10,04:05:00,DRY,2.20,8.95,17.5,775.00,2.2
2020-06-10,04:10:00,DRY,2.23,9.30,15.7,774.67,0.9
2020-06-10,04:15:00,DRY,2.40,9.70,13.0,775.00,1.1
2020-06-10,04:20:00,DRY,3.60,9.43,14.3,775.00,1.3
2020-06-10,04:25:00,DRY,2.50,9.50,13.5,775.00,2.1
2020-06-10,04:30:00,DRY,2.00,9.70,12.3,775.00,1.9
2020-06-10,04:35:00,DRY,1.85,10.15,11.5,775.00,1.9
2020-06-10,04:40:00,DRY,0.90,10.53,9.3,775.00,1.2
2020-06-10,04:45:00,DRY,0.85,10.75,7.5,775.00,1.9
2020-06-10,04:50:00,DRY,0.77,10.93,8.0,775.00,2.3
2020-06-10,04:55:00,DRY,0.70,10.85,8.0,775.00,1.6
2020-06-10,05:00:00,DRY,2.17,10.57,10.0,775.00,0.6
2020-06-10,05:05:00,DRY,2.65,10.20,12.0,775.00,0.7
2020-06-10,05:10:00,DRY,2.37,9.80,12.3,775.00,1.6
2020-06-10,05:15:00,DRY,2.15,9.90,12.0,775.00,1.1
2020-06-10,05:20:00,DRY,2.23,9.70,13.3,775.00,0.8
2020-06-10,05:25:00,DRY,2.45,9.85,12.5,775.00,0.7
2020-06-10,05:30:00,DRY,2.37,9.47,14.3,775.00,0.9
2020-06-10,05:35:00,DRY,1.80,9.05,14.5,775.00,1.2
2020-06-10,05:40:00,DRY,1.77,9.27,14.3,775.00,0.5
2020-06-10,05:45:00,DRY,0.85,9.60,12.5,775.00,1.8
2020-06-10,05:50:00,DRY,1.13,10.07,10.7,775.00,1.8
2020-06-10,05:55:00,DRY,1.45,9.85,11.0,775.00,2.4
2020-06-10,06:00:00,DRY,0.83,10.50,8.3,775.00,2.4
2020-06-10,06:05:00,DRY,0.85,10.65,8.0,775.00,4.5
2020-06-10,06:10:00,DRY,0.33,10.37,9.0,775.00,6.0
2020-06-10,06:15:00,DRY,0.45,10.60,8.0,775.00,8.4
2020-06-10,06:20:00,DRY,0.47,11.07,7.0,775.00,12.8
2020-06-10,06:25:00,DRY,0.70,11.15,7.0,775.00,20.1
2020-06-10,06:30:00,DRY,1.67,11.03,8.0,775.00,39.7
2020-06-10,06:35:00,DRY,2.95,10.25,11.0,775.00,41.5
2020-06-10,06:40:00,DRY,3.70,10.10,13.3,775.00,95.0
2020-06-10,06:45:00,DRY,4.05,10.15,14.0,775.00,125.8
2020-06-10,06:50:00,DRY,3.73,10.23,13.3,775.00,138.0
2020-06-10,06:55:00,DRY,4.45,10.35,14.0,775.00,143.2
2020-06-10,07:00:00,DRY,3.83,10.20,14.7,775.00,184.2
2020-06-10,07:05:00,DRY,2.15,10.15,15.5,775.00,192.9
2020-06-10,07:10:00,DRY,4.40,10.67,13.7,775.00,211.6
2020-06-10,07:15:00,DRY,2.65,10.00,16.5,775.00,247.2
2020-06-10,07:20:00,DRY,5.10,9.33,20.3,775.00,269.8
2020-06-10,07:25:00,DRY,6.35,9.45,19.0,775.00,291.2
2020-06-10,07:30:00,DRY,6.83,9.20,20.7,775.00,314.1
2020-06-10,07:35:00,DRY,5.85,9.10,22.0,775.00,335.1
2020-06-10,07:40:00,DRY,6.03,9.30,26.0,775.00,357.4
2020-06-10,07:45:00,DRY,5.50,9.45,32.5,775.00,379.6
2020-06-10,07:50:00,DRY,4.93,9.37,33.7,775.00,402.1
2020-06-10,07:55:00,DRY,4.15,8.95,32.5,775.00,424.4
2020-06-10,08:00:00,DRY,5.10,8.93,34.7,775.00,446.1
2020-06-10,08:05:00,DRY,6.00,9.35,41.0,775.00,469.8
2020-06-10,08:10:00,DRY,5.70,9.53,42.0,775.00,491.8
2020-06-10,08:15:00,DRY,4.80,9.60,42.5,775.00,515.9
2020-06-10,08:20:00,DRY,4.57,9.70,42.7,775.00,536.2
2020-06-10,08:25:00,DRY,6.85,9.60,41.0,775.00,560.6
2020-06-10,08:30:00,DRY,5.03,9.40,42.3,775.00,587.6
2020-06-10,08:35:00,DRY,4.60,9.65,44.0,775.00,612.4
2020-06-10,08:40:00,DRY,4.57,9.97,44.7,775.00,631.1
2020-06-10,08:45:00,DRY,4.45,10.10,45.0,775.00,649.7
2020-06-10,08:50:00,DRY,5.37,10.50,42.3,775.00,551.4
2020-06-10,08:55:00,DRY,3.90,10.55,43.5,775.00,590.4
2020-06-10,09:00:00,DRY,4.10,10.63,43.3,775.00,716.6
2020-06-10,09:05:00,DRY,4.75,10.60,44.5,775.00,716.2
2020-06-10,09:10:00,DRY,4.87,10.53,45.7,775.00,735.9
2020-06-10,09:15:00,DRY,5.50,10.40,45.5,775.00,787.3
2020-06-10,09:20:00,DRY,3.03,9.93,47.7,775.00,747.7
2020-06-10,09:25:00,DRY,3.45,9.75,50.0,775.00,800.4
2020-06-10,09:30:00,DRY,4.40,9.60,50.7,775.33,802.2
2020-06-10,09:35:00,DRY,4.40,10.05,51.0,775.00,654.6
2020-06-10,09:40:00,DRY,4.27,10.33,47.7,775.00,833.3
2020-06-10,09:45:00,DRY,3.30,10.85,45.5,775.00,884.5
2020-06-10,09:50:00,DRY,4.33,11.13,44.7,775.00,688.4
2020-06-10,09:55:00,DRY,4.25,11.30,46.0,775.50,494.1
2020-06-10,10:00:00,DRY,3.53,10.90,46.7,775.00,911.7
2020-06-10,10:05:00,DRY,6.25,11.20,46.5,775.00,1035.5
2020-06-10,10:10:00,DRY,6.53,11.60,43.0,775.33,773.0
2020-06-10,10:15:00,DRY,6.55,11.65,43.0,775.00,1017.5
2020-06-10,10:20:00,DRY,5.80,11.67,43.3,775.00,916.0
2020-06-10,10:25:00,DRY,6.45,11.85,44.0,775.00,1111.2
2020-06-10,10:30:00,DRY,6.37,12.20,43.7,775.00,1111.9
2020-06-10,10:35:00,DRY,7.45,12.30,44.0,775.00,1121.2
2020-06-10,10:40:00,DRY,6.30,11.93,50.7,775.00,917.4
2020-06-10,10:45:00,DRY,4.05,12.15,49.5,775.00,1129.3
2020-06-10,10:50:00,DRY,3.77,12.23,45.3,775.67,945.3
2020-06-10,10:55:00,DRY,5.90,12.50,45.0,775.50,1129.8
2020-06-10,11:00:00,DRY,6.83,12.40,46.7,775.33,1143.3
2020-06-10,11:05:00,DRY,7.20,12.50,49.0,776.00,1258.3
2020-06-10,11:10:00,DRY,5.00,11.70,57.3,775.67,1123.1
2020-06-10,11:15:00,DRY,6.35,11.50,66.0,775.50,1020.5
2020-06-10,11:20:00,DRY,4.63,11.83,60.3,776.00,991.7
2020-06-10,11:25:00,DRY,5.45,11.80,62.0,775.00,946.0
2020-06-10,11:30:00,DRY,6.57,10.73,73.0,776.00,909.9
2020-06-10,11:35:00,DRY,4.80,10.45,75.5,775.50,1025.2
2020-06-10,11:40:00,DRY,4.17,11.30,70.0,775.67,1091.1
2020-06-10,11:45:00,DRY,6.40,11.90,61.0,776.00,1143.5
2020-06-10,11:50:00,DRY,5.30,12.00,59.7,776.00,956.1
2020-06-10,11:55:00,DRY,5.80,12.40,63.5,776.00,1184.7
2020-06-10,12:00:00,DRY,4.67,12.37,61.7,776.00,1200.6